Date String (YYYY-MM-DD hh:mm:ss) UTC,Instrument flags,Ambient pressure (hPa),Sample flow (lpm),Bypass flow (lpm),Sample temperature (°C),Ambient temperature (°C),ASC tube jacket temperature (°C),LED temperature (°C),Box temperature (°C),Sample RH (%),Span deviation,Mass concentration (μg/m³),Mass concentration (μg/m³),Mass concentration (μg/m³)
DateTimeUTC,F1_M11,P_M11,Q1_M11,Q2_M11,T1_M11,T2_M11,T3_M11,T4_M11,T5_M11,U1_M11,ZSPAN_M11,X0_M11,X2_M11,X1_M11
2021-12-03 22:00:00,,0827.7,5.01,0.00,30.3,29.5,00.0,39.2,32.0,12.7,0000.0,0016.71,0006.83,0005.41
2021-12-03 22:01:00,,0827.7,4.99,0.00,30.3,29.6,00.0,39.2,32.0,12.7,0000.0,0016.99,0006.74,0005.34
2021-12-03 22:02:00,,0827.7,5.01,0.00,30.3,29.6,00.0,39.2,32.0,12.7,0000.0,0018.89,0006.67,0005.25
2021-12-03 22:03:00,,0827.7,4.99,0.00,30.3,29.6,00.0,39.2,32.0,12.7,0000.0,0019.41,0006.60,0005.17
2021-12-03 22:04:00,,0827.7,5.00,0.00,30.3,29.6,00.0,39.2,32.1,12.7,0000.0,0019.19,0006.54,0005.09
2021-12-03 22:05:00,,0827.7,5.01,0.00,30.3,29.7,00.0,39.2,32.1,12.7,0000.0,0019.02,0006.44,0005.04
2021-12-03 22:06:00,,0827.7,4.99,0.00,30.4,29.7,00.0,39.3,32.1,12.7,0000.0,0019.31,0006.45,0004.98
2021-12-03 22:07:00,,0827.7,5.01,0.00,30.4,29.7,00.0,39.3,32.2,12.7,0000.0,0019.30,0006.37,0004.92
2021-12-03 22:08:00,,0827.7,4.98,0.00,30.4,29.7,00.0,39.3,32.2,12.6,0000.0,0019.00,0006.20,0004.86
2021-12-03 22:09:00,,0827.7,5.00,0.00,30.4,29.8,00.0,39.3,32.2,12.6,0000.0,0018.69,0006.17,0004.84
2021-12-03 22:10:00,,0827.7,5.01,0.00,30.5,29.8,00.0,39.3,32.2,12.6,0000.0,0017.43,0006.10,0004.81
2021-12-03 22:11:00,,0827.7,4.98,0.00,30.5,29.8,00.0,39.3,32.3,12.6,0000.0,0016.36,0006.04,0004.78
2021-12-03 22:12:00,,0827.8,5.00,0.00,30.5,29.9,00.0,39.3,32.3,12.6,0000.0,0016.41,0006.03,0004.76
2021-12-03 22:13:00,,0827.8,4.99,0.00,30.5,29.9,00.0,39.4,32.3,12.6,0000.0,0015.34,0005.97,0004.73
2021-12-03 22:14:00,,0827.8,5.00,0.00,30.5,29.9,00.0,39.4,32.3,12.6,0000.0,0015.49,0005.94,0004.72
2021-12-03 22:15:00,,0827.9,5.00,0.00,30.6,29.9,00.0,39.4,32.3,12.5,0000.0,0016.95,0005.96,0004.71
2021-12-03 22:16:00,,0827.9,5.01,0.00,30.6,30.0,00.0,39.4,32.4,12.5,0000.0,0017.73,0005.97,0004.69
2021-12-03 22:17:00,,0827.8,4.99,0.00,30.6,30.0,00.0,39.4,32.4,12.5,0000.0,0017.44,0005.93,0004.69
2021-12-03 22:18:00,,0827.8,5.01,0.00,30.6,30.0,00.0,39.5,32.4,12.5,0000.0,0017.24,0005.90,0004.69
2021-12-03 22:19:00,,0827.8,4.99,0.00,30.6,30.0,00.0,39.5,32.4,12.5,0000.0,0017.10,0005.86,0004.67
2021-12-03 22:20:00,,0827.8,5.01,0.00,30.7,30.0,00.0,39.5,32.4,12.5,0000.0,0017.80,0005.89,0004.64
2021-12-03 22:21:00,,0827.9,5.00,0.00,30.7,30.1,00.0,39.5,32.4,12.5,0000.0,0018.51,0005.89,0004.62
2021-12-03 22:22:00,,0827.9,4.99,0.00,30.7,30.1,00.0,39.5,32.5,12.5,0000.0,0018.93,0005.87,0004.59
2021-12-03 22:23:00,,0827.9,5.00,0.00,30.7,30.1,00.0,39.5,32.5,12.4,0000.0,0021.27,0005.86,0004.55
2021-12-03 22:24:00,,0827.9,5.00,0.00,30.7,30.1,00.0,39.6,32.5,12.4,0000.0,0021.20,0005.88,0004.53
2021-12-03 22:25:00,,0827.8,5.01,0.00,30.7,30.1,00.0,39.6,32.5,12.4,0000.0,0021.02,0005.91,0004.51
2021-12-03 22:26:00,,0827.9,5.01,0.00,30.8,30.1,00.0,39.6,32.5,12.4,0000.0,0019.85,0005.91,0004.50
2021-12-03 22:27:00,,0827.9,4.99,0.00,30.8,30.2,00.0,39.6,32.6,12.4,0000.0,0019.13,0005.91,0004.49
2021-12-03 22:28:00,,0827.9,5.01,0.00,30.8,30.1,00.0,39.6,32.6,12.4,0000.0,0019.10,0005.89,0004.46
2021-12-03 22:29:00,,0827.9,4.99,0.00,30.8,29.2,00.0,39.6,32.3,12.3,0000.0,0019.98,0005.93,0004.45
2021-12-03 22:30:00,,0827.8,5.01,0.00,30.6,26.8,00.0,39.6,31.6,12.4,0000.0,0020.93,0005.94,0004.44
2021-12-03 22:31:00,,0827.9,5.00,0.00,30.4,26.0,00.0,39.5,31.4,12.6,0000.0,0021.32,0005.89,0004.42
2021-12-03 22:32:00,,0827.9,4.99,0.00,30.3,26.4,00.0,39.4,31.4,12.7,0000.0,0020.43,0005.86,0004.40
2021-12-03 22:33:00,,0827.9,5.00,0.00,30.2,26.9,00.0,39.4,31.5,12.7,0000.0,0020.54,0005.84,0004.40
2021-12-03 22:34:00,,0827.9,5.01,0.00,30.2,27.4,00.0,39.3,31.6,12.8,0000.0,0019.12,0005.83,0004.40
2021-12-03 22:35:00,,0827.8,5.01,0.00,30.2,27.8,00.0,39.3,31.7,12.8,0000.0,0018.53,0005.84,0004.41
2021-12-03 22:36:00,,0827.9,4.99,0.00,30.2,28.2,00.0,39.3,31.7,12.8,0000.0,0017.99,0005.75,0004.41
2021-12-03 22:37:00,,0827.9,5.00,0.00,30.2,28.5,00.0,39.3,31.8,12.8,0000.0,0016.88,0005.71,0004.42
2021-12-03 22:38:00,,0827.9,5.00,0.00,30.2,28.7,00.0,39.2,31.9,12.8,0000.0,0016.10,0005.67,0004.41
2021-12-03 22:39:00,,0827.9,5.00,0.00,30.2,28.8,00.0,39.2,31.9,12.7,0000.0,0016.51,0005.68,0004.41
2021-12-03 22:40:00,,0827.9,5.00,0.00,30.2,29.0,00.0,39.2,31.9,12.7,0000.0,0016.64,0005.64,0004.39
2021-12-03 22:41:00,,0827.8,5.00,0.00,30.2,29.1,00.0,39.2,32.0,12.7,0000.0,0015.99,0005.73,0004.39
2021-12-03 22:42:00,,0827.9,4.99,0.00,30.3,29.2,00.0,39.2,32.0,12.7,0000.0,0016.79,0005.76,0004.37
2021-12-03 22:43:00,,0827.9,5.00,0.00,30.3,29.3,00.0,39.2,32.0,12.7,0000.0,0018.62,0005.82,0004.35
2021-12-03 22:44:00,,0828.2,4.99,0.00,30.3,29.4,00.0,39.3,32.1,12.6,0000.0,0019.40,0005.86,0004.32
2021-12-03 22:45:00,,0827.9,4.99,0.00,30.4,29.5,00.0,39.3,32.1,12.6,0000.0,0020.61,0005.89,0004.28
2021-12-03 22:46:00,,0827.9,5.01,0.00,30.4,29.5,00.0,39.3,32.1,12.6,0000.0,0020.49,0005.89,0004.24
2021-12-03 22:47:00,,0827.9,5.00,0.00,30.4,29.6,00.0,39.3,32.2,12.6,0000.0,0025.39,0006.08,0004.21
2021-12-03 22:48:00,,0827.9,5.01,0.00,30.4,29.6,00.0,39.3,32.2,12.6,0000.0,0028.72,0006.14,0004.16
2021-12-03 22:49:00,,0827.9,5.00,0.00,30.5,29.7,00.0,39.3,32.3,12.5,0000.0,0029.97,0006.22,0004.13
2021-12-03 22:50:00,,0827.9,4.99,0.00,30.5,29.7,00.0,39.3,32.3,12.5,0000.0,0030.74,0006.27,0004.11
2021-12-03 22:51:00,,0827.9,5.01,0.00,30.5,29.7,00.0,39.4,32.3,12.5,0000.0,0030.39,0006.29,0004.08
2021-12-03 22:52:00,,0827.9,5.02,0.00,30.5,29.8,00.0,39.4,32.3,12.5,0000.0,0032.42,0006.23,0004.05
2021-12-03 22:53:00,,0827.9,5.00,0.00,30.5,29.8,00.0,39.4,32.3,12.5,0000.0,0032.04,0006.18,0004.04
2021-12-03 22:54:00,,0828.0,4.99,0.00,30.6,29.8,00.0,39.4,32.3,12.5,0000.0,0030.41,0006.15,0004.03
2021-12-03 22:55:00,,0827.9,5.00,0.00,30.6,29.8,00.0,39.4,32.4,12.5,0000.0,0031.45,0006.18,0004.04
2021-12-03 22:56:00,,0827.9,5.02,0.00,30.6,29.8,00.0,39.4,32.4,12.5,0000.0,0029.75,0006.20,0004.06
2021-12-03 22:57:00,,0828.0,4.99,0.00,30.6,29.8,00.0,39.5,32.4,12.5,0000.0,0029.76,0006.18,0004.07
2021-12-03 22:58:00,,0828.0,5.01,0.00,30.6,29.9,00.0,39.5,32.4,12.5,0000.0,0025.88,0006.04,0004.07
2021-12-03 22:59:00,,0828.0,4.99,0.00,30.6,29.9,00.0,39.5,32.4,12.4,0000.0,0023.69,0005.98,0004.08
